Skip Page Navigation
NASA JPL Caltech
NASA Logo - Jet Propulsion Laboratory + View the NASA Portal
+ Center for Near-Earth Object Studies
JPL Home Earth Solar System Stars & Galaxies Technology
JPL Solar System Dynamics
BODIES ORBITS EPHEMERIDES TOOLS PHYSICAL DATA DISCOVERY FAQ SITE MAP
IMPORTANT: The SSD Announcement email list is now available. Major changes are coming in the near future, including possible hostname and/or URL changes. To be notified of such changes, subscribe to this email list.

Please visit this page for more details.


JPL Small-Body Database Browser
Search: [ help ]  
136158 (2003 UU14)
Classification: Main-belt Asteroid          SPK-ID: 2136158
Ephemeris | Orbit Diagram | Orbital Elements | Mission Design | Physical Parameters | Discovery Circumstances | Close-Approach Data ]

[ show orbit diagram ]
Orbital Elements at Epoch 2458600.5 (2019-Apr-27.0) TDB
Reference: JPL 14 (heliocentric ecliptic J2000)
 Element Value Uncertainty (1-sigma)   Units 
e .03698508040634593 5.9051e-08  
a 2.299513050774057 1.2847e-08 au
q 2.214465375695736 1.3727e-07 au
i 5.985597388458784 5.1554e-06 deg
node 226.5081556006471 4.9163e-05 deg
peri 293.1571721531337 8.035e-05 deg
M 34.02129931411326 6.2427e-05 deg
tp 2458480.134883638076
(2018-Dec-27.63488364)
0.00022115 TDB
period 1273.656290731881
3.49
1.0673e-05
2.922e-08
d
yr
n .2826508239464929 2.3686e-09 deg/d
Q 2.384560725852377 1.3322e-08 au
  Orbit Determination Parameters
   # obs. used (total)      404  
   data-arc span      8247 days (22.58 yr)  
   first obs. used      1996-10-04  
   last obs. used      2019-05-04  
   planetary ephem.      DE431  
   SB-pert. ephem.      SB431-N16  
   condition code      0  
   norm. resid. RMS      .61876  
   source      ORB  
   producer      Otto Matic  
   solution date      2019-May-30 07:12:44  

Additional Information
 Earth MOID = 1.22866 au 
 Jupiter MOID = 2.60043 au 
 T_jup = 3.584 
[ show covariance matrix ]

Ephemeris | Orbit Diagram | Orbital Elements | Mission Design | Physical Parameters | Discovery Circumstances | Close-Approach Data ]

Physical Parameter Table
Parameter Symbol Value Units Sigma Reference Notes
absolute magnitude H 16.4   n/a MPO436669  

136158 (2003 UU14)          Discovered 2003-Oct-16 by Spacewatch at Kitt Peak
Reference: 20060907/Numbers.arcLast Updated: 2006-09-10

[ show close-approach data ]
Ephemeris | Orbit Diagram | Orbital Elements | Mission Design | Physical Parameters | Discovery Circumstances | Close-Approach Data ]
ABOUT SSD CREDITS/AWARDS PRIVACY/COPYRIGHT GLOSSARY LINKS
FirstGov
(server date/time)  
NASA Home Page
Site Manager:   Ryan S. Park
Webmaster  Alan B. Chamberlin